Location: Klein M�hlingen
(51.9472°N, 11.7453°E)
Time: 18:43:16
(UTC+00:00)

ATLAS 5 CENTAUR R/B - Pass Details

Date: 09 April 2020
Orbit: 543 x 1116 km, 63.4° (Epoch: 01 May)

Event Time Altitude Azimuth Distance (km) Brightness Sun altitude
Rises 20:00:10 0° 236° (WSW) 2,769 5.1 -17.1°
Reaches altitude 10° 20:02:17 10° 240° (WSW) 1,919 4.3 -17.4°
Maximum altitude 20:06:32 61° 321° (NW) 733 2.2 -17.9°
Drops below altitude 10° 20:11:27 10° 43° (NE) 2,208 4.4 -18.5°
Sets 20:14:03 0° 47° (NE) 3,230 5.2 -18.8°
